Year,Month,Day,Hour,Minute,Value (Times are PST for windgust in km/hr)
2018,12,16,00,00,20.90
2018,12,16,00,01,14.50
2018,12,16,00,02,19.30
2018,12,16,00,03,24.20
2018,12,16,00,04,25.70
2018,12,16,00,05,25.70
2018,12,16,00,06,35.40
2018,12,16,00,07,22.50
2018,12,16,00,08,24.20
2018,12,16,00,09,29.00
2018,12,16,00,10,25.70
2018,12,16,00,11,25.70
2018,12,16,00,12,27.40
2018,12,16,00,13,20.90
2018,12,16,00,14,25.70
2018,12,16,00,15,27.40
2018,12,16,00,16,25.70
2018,12,16,00,17,27.40
2018,12,16,00,18,24.20
2018,12,16,00,19,29.00
2018,12,16,00,20,27.40
2018,12,16,00,21,25.70
2018,12,16,00,22,32.20
2018,12,16,00,23,27.40
2018,12,16,00,24,27.40
2018,12,16,00,25,29.00
2018,12,16,00,26,25.70
2018,12,16,00,27,29.00
2018,12,16,00,28,27.40
2018,12,16,00,29,29.00
2018,12,16,00,30,29.00
2018,12,16,00,31,27.40
2018,12,16,00,32,25.70
2018,12,16,00,33,27.40
2018,12,16,00,34,25.70
2018,12,16,00,35,29.00
2018,12,16,00,36,30.60
2018,12,16,00,37,25.70
2018,12,16,00,38,25.70
2018,12,16,00,39,25.70
2018,12,16,00,40,25.70
2018,12,16,00,41,25.70
2018,12,16,00,42,33.80
2018,12,16,00,43,25.70
2018,12,16,00,44,25.70
2018,12,16,00,45,24.20
2018,12,16,00,46,22.50
2018,12,16,00,47,27.40
2018,12,16,00,48,29.00
2018,12,16,00,49,25.70
2018,12,16,00,50,22.50
2018,12,16,00,51,25.70
2018,12,16,00,52,25.70
2018,12,16,00,53,25.70
2018,12,16,00,54,24.20
2018,12,16,00,55,22.50
2018,12,16,00,56,19.30
2018,12,16,00,57,25.70
2018,12,16,00,58,25.70
2018,12,16,00,59,24.20
2018,12,16,01,00,24.20
2018,12,16,01,01,24.20
2018,12,16,01,02,22.50
2018,12,16,01,03,16.10
2018,12,16,01,04,14.50
2018,12,16,01,05,20.90
2018,12,16,01,06,24.20
2018,12,16,01,07,19.30
2018,12,16,01,08,16.10
2018,12,16,01,09,24.20
2018,12,16,01,10,24.20
2018,12,16,01,11,19.30
2018,12,16,01,12,20.90
2018,12,16,01,13,20.90
2018,12,16,01,14,22.50
2018,12,16,01,15,25.70
2018,12,16,01,16,22.50
2018,12,16,01,17,22.50
2018,12,16,01,18,16.10
2018,12,16,01,19,16.10
2018,12,16,01,20,19.30
2018,12,16,01,21,19.30
2018,12,16,01,22,16.10
2018,12,16,01,23,17.70
2018,12,16,01,24,22.50
2018,12,16,01,25,12.90
2018,12,16,01,26,14.50
2018,12,16,01,27,14.50
2018,12,16,01,28,14.50
2018,12,16,01,29,9.60
2018,12,16,01,30,14.50
2018,12,16,01,31,14.50
2018,12,16,01,32,12.90
2018,12,16,01,33,20.90
2018,12,16,01,34,20.90
2018,12,16,01,35,17.70
2018,12,16,01,36,20.90
2018,12,16,01,37,20.90
2018,12,16,01,38,25.70
2018,12,16,01,39,22.50
2018,12,16,01,40,22.50
2018,12,16,01,41,20.90
2018,12,16,01,42,16.10
2018,12,16,01,43,24.20
2018,12,16,01,44,24.20
2018,12,16,01,45,25.70
2018,12,16,01,46,22.50
2018,12,16,01,47,20.90
2018,12,16,01,48,24.20
2018,12,16,01,49,22.50
2018,12,16,01,50,19.30
2018,12,16,01,51,14.50
2018,12,16,01,52,14.50
2018,12,16,01,53,14.50
2018,12,16,01,54,16.10
2018,12,16,01,55,24.20
2018,12,16,01,56,25.70
2018,12,16,01,57,27.40
2018,12,16,01,58,19.30
2018,12,16,01,59,20.90
2018,12,16,02,00,17.70
2018,12,16,02,01,24.20
2018,12,16,02,02,16.10
2018,12,16,02,03,17.70
2018,12,16,02,04,19.30
2018,12,16,02,05,12.90
2018,12,16,02,06,17.70
2018,12,16,02,07,17.70
2018,12,16,02,08,20.90
2018,12,16,02,09,14.50
2018,12,16,02,10,20.90
2018,12,16,02,11,19.30
2018,12,16,02,12,20.90
2018,12,16,02,13,16.10
2018,12,16,02,14,17.70
2018,12,16,02,15,24.20
2018,12,16,02,16,22.50
2018,12,16,02,17,22.50
2018,12,16,02,18,20.90
2018,12,16,02,19,19.30
2018,12,16,02,20,25.70
2018,12,16,02,21,22.50
2018,12,16,02,22,27.40
2018,12,16,02,23,24.20
2018,12,16,02,24,27.40
2018,12,16,02,25,24.20
2018,12,16,02,26,24.20
2018,12,16,02,27,29.00
2018,12,16,02,28,25.70
2018,12,16,02,29,25.70
2018,12,16,02,30,22.50
2018,12,16,02,31,27.40
2018,12,16,02,32,27.40
2018,12,16,02,33,25.70
2018,12,16,02,34,22.50
2018,12,16,02,35,22.50
2018,12,16,02,36,22.50
2018,12,16,02,37,24.20
2018,12,16,02,38,25.70
2018,12,16,02,39,22.50
2018,12,16,02,40,25.70
2018,12,16,02,41,20.90
2018,12,16,02,42,22.50
2018,12,16,02,43,25.70
2018,12,16,02,44,20.90
2018,12,16,02,45,22.50
2018,12,16,02,46,25.70
2018,12,16,02,47,22.50
2018,12,16,02,48,20.90
2018,12,16,02,49,20.90
2018,12,16,02,50,24.20
2018,12,16,02,51,22.50
2018,12,16,02,52,24.20
2018,12,16,02,53,19.30
2018,12,16,02,54,24.20
2018,12,16,02,55,24.20
2018,12,16,02,56,22.50
2018,12,16,02,57,20.90
2018,12,16,02,58,22.50
2018,12,16,02,59,16.10
2018,12,16,03,00,22.50
2018,12,16,03,01,17.70
2018,12,16,03,02,19.30
2018,12,16,03,03,22.50
2018,12,16,03,04,16.10
2018,12,16,03,05,19.30
2018,12,16,03,06,14.50
2018,12,16,03,07,17.70
2018,12,16,03,08,14.50
2018,12,16,03,09,20.90
2018,12,16,03,10,17.70
2018,12,16,03,11,16.10
2018,12,16,03,12,12.90
2018,12,16,03,13,12.90
2018,12,16,03,14,14.50
2018,12,16,03,15,17.70
2018,12,16,03,16,19.30
2018,12,16,03,17,9.60
2018,12,16,03,18,16.10
2018,12,16,03,19,16.10
2018,12,16,03,20,12.90
2018,12,16,03,21,17.70
2018,12,16,03,22,16.10
2018,12,16,03,23,14.50
2018,12,16,03,24,11.30
2018,12,16,03,25,8.10
2018,12,16,03,26,14.50
2018,12,16,03,27,16.10
2018,12,16,03,28,16.10
2018,12,16,03,29,11.30
2018,12,16,03,30,11.30
2018,12,16,03,31,20.90
2018,12,16,03,32,17.70
2018,12,16,03,33,22.50
2018,12,16,03,34,20.90
2018,12,16,03,35,14.50
2018,12,16,03,36,12.90
2018,12,16,03,37,20.90
2018,12,16,03,38,22.50
2018,12,16,03,39,22.50
2018,12,16,03,40,25.70
2018,12,16,03,41,25.70
2018,12,16,03,42,24.20
2018,12,16,03,43,22.50
2018,12,16,03,44,22.50
2018,12,16,03,45,24.20
2018,12,16,03,46,24.20
2018,12,16,03,47,20.90
2018,12,16,03,48,19.30
2018,12,16,03,49,16.10
2018,12,16,03,50,19.30
2018,12,16,03,51,25.70
2018,12,16,03,52,22.50
2018,12,16,03,53,17.70
2018,12,16,03,54,20.90
2018,12,16,03,55,20.90
2018,12,16,03,56,17.70
2018,12,16,03,57,19.30
2018,12,16,03,58,24.20
2018,12,16,03,59,22.50
2018,12,16,04,00,29.00
2018,12,16,04,01,22.50
2018,12,16,04,02,19.30
2018,12,16,04,03,22.50
2018,12,16,04,04,19.30
2018,12,16,04,05,24.20
2018,12,16,04,06,20.90
2018,12,16,04,07,25.70
2018,12,16,04,08,20.90
2018,12,16,04,09,22.50
2018,12,16,04,10,20.90
2018,12,16,04,11,24.20
2018,12,16,04,12,19.30
2018,12,16,04,13,16.10
2018,12,16,04,14,20.90
2018,12,16,04,15,22.50
2018,12,16,04,16,19.30
2018,12,16,04,17,19.30
2018,12,16,04,18,20.90
2018,12,16,04,19,20.90
2018,12,16,04,20,22.50
2018,12,16,04,21,24.20
2018,12,16,04,22,24.20
2018,12,16,04,23,22.50
2018,12,16,04,24,25.70
2018,12,16,04,25,24.20
2018,12,16,04,26,24.20
2018,12,16,04,27,20.90
2018,12,16,04,28,19.30
2018,12,16,04,29,25.70
2018,12,16,04,30,20.90
2018,12,16,04,31,24.20
2018,12,16,04,32,20.90
2018,12,16,04,33,20.90
2018,12,16,04,34,24.20
2018,12,16,04,35,25.70
2018,12,16,04,36,19.30
2018,12,16,04,37,22.50
2018,12,16,04,38,24.20
2018,12,16,04,39,22.50
2018,12,16,04,40,22.50
2018,12,16,04,41,19.30
2018,12,16,04,42,16.10
2018,12,16,04,43,22.50
2018,12,16,04,44,25.70
2018,12,16,04,45,22.50
2018,12,16,04,46,25.70
2018,12,16,04,47,20.90
2018,12,16,04,48,22.50
2018,12,16,04,49,22.50
2018,12,16,04,50,25.70
2018,12,16,04,51,24.20
2018,12,16,04,52,24.20
2018,12,16,04,53,22.50
2018,12,16,04,54,24.20
2018,12,16,04,55,24.20
2018,12,16,04,56,22.50
2018,12,16,04,57,24.20
2018,12,16,04,58,22.50
2018,12,16,04,59,22.50
2018,12,16,05,00,22.50
2018,12,16,05,01,14.50
2018,12,16,05,02,20.90
2018,12,16,05,03,19.30
2018,12,16,05,04,22.50
2018,12,16,05,05,19.30
2018,12,16,05,06,19.30
2018,12,16,05,07,17.70
2018,12,16,05,08,20.90
2018,12,16,05,09,20.90
2018,12,16,05,10,22.50
2018,12,16,05,11,24.20
2018,12,16,05,12,19.30
2018,12,16,05,13,19.30
2018,12,16,05,14,20.90
2018,12,16,05,15,20.90
2018,12,16,05,16,19.30
2018,12,16,05,17,17.70
2018,12,16,05,18,16.10
2018,12,16,05,19,19.30
2018,12,16,05,20,19.30
2018,12,16,05,21,19.30
2018,12,16,05,22,19.30
2018,12,16,05,23,17.70
2018,12,16,05,24,16.10
2018,12,16,05,25,12.90
2018,12,16,05,26,11.30
2018,12,16,05,27,14.50
2018,12,16,05,28,14.50
2018,12,16,05,29,14.50
2018,12,16,05,30,19.30
2018,12,16,05,31,16.10
2018,12,16,05,32,14.50
2018,12,16,05,33,22.50
2018,12,16,05,34,22.50
2018,12,16,05,35,11.30
2018,12,16,05,36,19.30
2018,12,16,05,37,12.90
2018,12,16,05,38,17.70
2018,12,16,05,39,19.30
2018,12,16,05,40,14.50
2018,12,16,05,41,17.70
2018,12,16,05,42,17.70
2018,12,16,05,43,6.40
2018,12,16,05,44,6.40
2018,12,16,05,45,3.20
2018,12,16,05,46,8.10
2018,12,16,05,47,4.80
2018,12,16,05,48,9.60
2018,12,16,05,49,6.40
2018,12,16,05,50,4.80
2018,12,16,05,51,9.60
2018,12,16,05,52,4.80
2018,12,16,05,53,6.40
2018,12,16,05,54,11.30
2018,12,16,05,55,4.80
2018,12,16,05,56,8.10
2018,12,16,05,57,19.30
2018,12,16,05,58,11.30
2018,12,16,05,59,16.10
2018,12,16,06,00,19.30
2018,12,16,06,01,12.90
2018,12,16,06,02,17.70
2018,12,16,06,03,14.50
2018,12,16,06,04,12.90
2018,12,16,06,05,17.70
2018,12,16,06,06,12.90
2018,12,16,06,07,11.30
2018,12,16,06,08,4.80
2018,12,16,06,09,17.70
2018,12,16,06,10,14.50
2018,12,16,06,11,8.10
2018,12,16,06,12,14.50
2018,12,16,06,13,8.10
2018,12,16,06,14,3.20
2018,12,16,06,15,3.20
2018,12,16,06,16,4.80
2018,12,16,06,17,9.60
2018,12,16,06,18,4.80
2018,12,16,06,19,14.50
2018,12,16,06,20,12.90
2018,12,16,06,21,11.30
2018,12,16,06,22,11.30
2018,12,16,06,23,16.10
2018,12,16,06,24,14.50
2018,12,16,06,25,17.70
2018,12,16,06,26,12.90
2018,12,16,06,27,20.90
2018,12,16,06,28,19.30
2018,12,16,06,29,16.10
2018,12,16,06,30,17.70
2018,12,16,06,31,20.90
2018,12,16,06,32,22.50
2018,12,16,06,33,22.50
2018,12,16,06,34,20.90
2018,12,16,06,35,19.30
2018,12,16,06,36,17.70
2018,12,16,06,37,24.20
2018,12,16,06,38,20.90
2018,12,16,06,39,19.30
2018,12,16,06,40,20.90
2018,12,16,06,41,20.90
2018,12,16,06,42,22.50
2018,12,16,06,43,24.20
2018,12,16,06,44,24.20
2018,12,16,06,45,22.50
2018,12,16,06,46,22.50
2018,12,16,06,47,20.90
2018,12,16,06,48,20.90
2018,12,16,06,49,20.90
2018,12,16,06,50,19.30
2018,12,16,06,51,17.70
2018,12,16,06,52,20.90
2018,12,16,06,53,19.30
2018,12,16,06,54,20.90
2018,12,16,06,55,17.70
2018,12,16,06,56,20.90
2018,12,16,06,57,24.20
2018,12,16,06,58,22.50
2018,12,16,06,59,24.20
2018,12,16,07,00,20.90
2018,12,16,07,01,22.50
2018,12,16,07,02,20.90
2018,12,16,07,03,20.90
2018,12,16,07,04,20.90
2018,12,16,07,05,17.70
2018,12,16,07,06,19.30
2018,12,16,07,07,20.90
2018,12,16,07,08,19.30
2018,12,16,07,09,20.90
2018,12,16,07,10,22.50
2018,12,16,07,11,19.30
2018,12,16,07,12,20.90
2018,12,16,07,13,17.70
2018,12,16,07,14,16.10
2018,12,16,07,15,20.90
2018,12,16,07,16,19.30
2018,12,16,07,17,19.30
2018,12,16,07,18,19.30
2018,12,16,07,19,16.10
2018,12,16,07,20,16.10
2018,12,16,07,21,17.70
2018,12,16,07,22,17.70
2018,12,16,07,23,16.10
2018,12,16,07,24,11.30
2018,12,16,07,25,19.30
2018,12,16,07,26,19.30
2018,12,16,07,27,19.30
2018,12,16,07,28,19.30
2018,12,16,07,29,20.90
2018,12,16,07,30,20.90
2018,12,16,07,31,19.30
2018,12,16,07,32,22.50
2018,12,16,07,33,17.70
2018,12,16,07,34,22.50
2018,12,16,07,35,17.70
2018,12,16,07,36,3.20
2018,12,16,07,37,12.90
2018,12,16,07,38,11.30
2018,12,16,07,39,11.30
2018,12,16,07,40,6.40
2018,12,16,07,41,9.60
2018,12,16,07,42,12.90
2018,12,16,07,43,12.90
2018,12,16,07,44,12.90
2018,12,16,07,45,14.50
2018,12,16,07,46,6.40
2018,12,16,07,47,6.40
2018,12,16,07,48,9.60
2018,12,16,07,49,6.40
2018,12,16,07,50,4.80
2018,12,16,07,51,1.60
2018,12,16,07,52,6.40
2018,12,16,07,53,4.80
2018,12,16,07,54,4.80
2018,12,16,07,55,3.20
2018,12,16,07,56,3.20
2018,12,16,07,57,6.40
2018,12,16,07,58,3.20
2018,12,16,07,59,12.90
2018,12,16,08,00,17.70
2018,12,16,08,01,14.50
2018,12,16,08,02,16.10
2018,12,16,08,03,14.50
2018,12,16,08,04,20.90
2018,12,16,08,05,17.70
2018,12,16,08,06,17.70
2018,12,16,08,07,24.20
2018,12,16,08,08,20.90
2018,12,16,08,09,20.90
2018,12,16,08,10,14.50
2018,12,16,08,11,6.40
2018,12,16,08,12,12.90
2018,12,16,08,13,11.30
2018,12,16,08,14,11.30
2018,12,16,08,15,9.60
2018,12,16,08,16,8.10
2018,12,16,08,17,3.20
2018,12,16,08,18,3.20
2018,12,16,08,19,3.20
2018,12,16,08,20,4.80
2018,12,16,08,21,6.40
2018,12,16,08,22,3.20
2018,12,16,08,23,4.80
2018,12,16,08,24,4.80
2018,12,16,08,25,9.60
2018,12,16,08,26,9.60
2018,12,16,08,27,11.30
2018,12,16,08,28,6.40
2018,12,16,08,29,6.40
2018,12,16,08,30,6.40
2018,12,16,08,31,9.60
2018,12,16,08,32,4.80
2018,12,16,08,33,4.80
2018,12,16,08,34,9.60
2018,12,16,08,35,14.50
2018,12,16,08,36,16.10
2018,12,16,08,37,6.40
2018,12,16,08,38,9.60
2018,12,16,08,39,6.40
2018,12,16,08,40,12.90
2018,12,16,08,41,11.30
2018,12,16,08,42,11.30
2018,12,16,08,43,9.60
2018,12,16,08,44,6.40
2018,12,16,08,45,6.40
2018,12,16,08,46,11.30
2018,12,16,08,47,19.30
2018,12,16,08,48,6.40
2018,12,16,08,49,14.50
2018,12,16,08,50,20.90
2018,12,16,08,51,11.30
2018,12,16,08,52,8.10
2018,12,16,08,53,17.70
2018,12,16,08,54,14.50
2018,12,16,08,55,16.10
2018,12,16,08,56,12.90
2018,12,16,08,57,33.80
2018,12,16,08,58,11.30
2018,12,16,08,59,17.70
2018,12,16,09,00,12.90
2018,12,16,09,01,16.10
2018,12,16,09,02,8.10
2018,12,16,09,03,16.10
2018,12,16,09,04,19.30
2018,12,16,09,05,17.70
2018,12,16,09,06,9.60
2018,12,16,09,07,8.10
2018,12,16,09,08,12.90
2018,12,16,09,09,9.60
2018,12,16,09,10,16.10
2018,12,16,09,11,11.30
2018,12,16,09,12,6.40
2018,12,16,09,13,6.40
2018,12,16,09,14,6.40
2018,12,16,09,15,6.40
2018,12,16,09,16,11.30
2018,12,16,09,17,9.60
2018,12,16,09,18,4.80
2018,12,16,09,19,3.20
2018,12,16,09,20,14.50
2018,12,16,09,21,12.90
2018,12,16,09,22,17.70
2018,12,16,09,23,6.40
2018,12,16,09,24,14.50
2018,12,16,09,25,8.10
2018,12,16,09,26,16.10
2018,12,16,09,27,11.30
2018,12,16,09,28,12.90
2018,12,16,09,29,8.10
2018,12,16,09,30,6.40
2018,12,16,09,31,6.40
2018,12,16,09,32,4.80
2018,12,16,09,33,6.40
2018,12,16,09,34,11.30
2018,12,16,09,35,4.80
2018,12,16,09,36,6.40
2018,12,16,09,37,6.40
2018,12,16,09,38,9.60
2018,12,16,09,39,1.60
2018,12,16,09,40,6.40
2018,12,16,09,41,6.40
2018,12,16,09,42,6.40
2018,12,16,09,43,8.10
2018,12,16,09,44,6.40
2018,12,16,09,45,6.40
2018,12,16,09,46,6.40
2018,12,16,09,47,6.40
2018,12,16,09,48,6.40
2018,12,16,09,49,4.80
2018,12,16,09,50,9.60
2018,12,16,09,51,4.80
2018,12,16,09,52,4.80
2018,12,16,09,53,8.10
2018,12,16,09,54,3.20
2018,12,16,09,55,8.10
2018,12,16,09,56,6.40
2018,12,16,09,57,16.10
2018,12,16,09,58,6.40
2018,12,16,09,59,8.10
2018,12,16,10,00,8.10
2018,12,16,10,01,6.40
2018,12,16,10,02,9.60
2018,12,16,10,03,4.80
2018,12,16,10,04,6.40
2018,12,16,10,05,3.20
2018,12,16,10,06,4.80
2018,12,16,10,07,3.20
2018,12,16,10,08,3.20
2018,12,16,10,09,6.40
2018,12,16,10,10,6.40
2018,12,16,10,11,6.40
2018,12,16,10,12,4.80
2018,12,16,10,13,9.60
2018,12,16,10,14,9.60
2018,12,16,10,15,14.50
2018,12,16,10,16,14.50
2018,12,16,10,17,11.30
2018,12,16,10,18,6.40
2018,12,16,10,19,6.40
2018,12,16,10,20,8.10
2018,12,16,10,21,11.30
2018,12,16,10,22,12.90
2018,12,16,10,23,11.30
2018,12,16,10,24,11.30
2018,12,16,10,25,11.30
2018,12,16,10,26,9.60
2018,12,16,10,27,6.40
2018,12,16,10,28,6.40
2018,12,16,10,29,4.80
2018,12,16,10,30,4.80
2018,12,16,10,31,3.20
2018,12,16,10,32,4.80
2018,12,16,10,33,4.80
2018,12,16,10,34,3.20
2018,12,16,10,35,3.20
2018,12,16,10,36,3.20
2018,12,16,10,37,4.80
2018,12,16,10,38,11.30
2018,12,16,10,39,9.60
2018,12,16,10,40,8.10
2018,12,16,10,41,6.40
2018,12,16,10,42,8.10
2018,12,16,10,43,11.30
2018,12,16,10,44,9.60
2018,12,16,10,45,9.60
2018,12,16,10,46,12.90
2018,12,16,10,47,6.40
2018,12,16,10,48,4.80
2018,12,16,10,49,6.40
2018,12,16,10,50,9.60
2018,12,16,10,51,9.60
2018,12,16,10,52,3.20
2018,12,16,10,53,11.30
2018,12,16,10,54,11.30
2018,12,16,10,55,6.40
2018,12,16,10,56,8.10
2018,12,16,10,57,4.80
2018,12,16,10,58,6.40
2018,12,16,10,59,6.40
2018,12,16,11,00,4.80
2018,12,16,11,01,4.80
2018,12,16,11,02,4.80
2018,12,16,11,03,9.60
2018,12,16,11,04,6.40
2018,12,16,11,05,9.60
2018,12,16,11,06,6.40
2018,12,16,11,07,4.80
2018,12,16,11,08,6.40
2018,12,16,11,09,3.20
2018,12,16,11,10,4.80
2018,12,16,11,11,3.20
2018,12,16,11,12,1.60
2018,12,16,11,13,4.80
2018,12,16,11,14,6.40
2018,12,16,11,15,6.40
2018,12,16,11,16,3.20
2018,12,16,11,17,1.60
2018,12,16,11,18,1.60
2018,12,16,11,19,3.20
2018,12,16,11,20,6.40
2018,12,16,11,21,3.20
2018,12,16,11,22,3.20
2018,12,16,11,23,3.20
2018,12,16,11,24,3.20
2018,12,16,11,25,4.80
2018,12,16,11,26,3.20
2018,12,16,11,27,3.20
2018,12,16,11,28,6.40
2018,12,16,11,29,3.20
2018,12,16,11,30,6.40
2018,12,16,11,31,4.80
2018,12,16,11,32,6.40
2018,12,16,11,33,4.80
2018,12,16,11,34,6.40
2018,12,16,11,35,1.60
2018,12,16,11,36,3.20
2018,12,16,11,37,3.20
2018,12,16,11,38,4.80
2018,12,16,11,39,4.80
2018,12,16,11,40,4.80
2018,12,16,11,41,8.10
2018,12,16,11,42,4.80
2018,12,16,11,43,4.80
2018,12,16,11,44,4.80
2018,12,16,11,45,3.20
2018,12,16,11,46,8.10
2018,12,16,11,47,4.80
2018,12,16,11,48,4.80
2018,12,16,11,49,3.20
2018,12,16,11,50,3.20
2018,12,16,11,51,4.80
2018,12,16,11,52,6.40
2018,12,16,11,53,4.80
2018,12,16,11,54,1.60
2018,12,16,11,55,6.40
2018,12,16,11,56,4.80
2018,12,16,11,57,6.40
2018,12,16,11,58,6.40
2018,12,16,11,59,4.80
2018,12,16,12,00,4.80
2018,12,16,12,01,4.80
2018,12,16,12,02,6.40
2018,12,16,12,03,4.80
2018,12,16,12,04,6.40
2018,12,16,12,05,4.80
2018,12,16,12,06,4.80
2018,12,16,12,07,4.80
2018,12,16,12,08,8.10
2018,12,16,12,09,4.80
2018,12,16,12,10,8.10
2018,12,16,12,11,4.80
2018,12,16,12,12,4.80
2018,12,16,12,13,6.40
2018,12,16,12,14,4.80
2018,12,16,12,15,6.40
2018,12,16,12,16,3.20
2018,12,16,12,17,4.80
2018,12,16,12,18,3.20
2018,12,16,12,19,6.40
2018,12,16,12,20,4.80
2018,12,16,12,21,4.80
2018,12,16,12,22,12.90
2018,12,16,12,23,6.40
2018,12,16,12,24,9.60
2018,12,16,12,25,4.80
2018,12,16,12,26,6.40
2018,12,16,12,27,6.40
2018,12,16,12,28,11.30
2018,12,16,12,29,8.10
2018,12,16,12,30,6.40
2018,12,16,12,31,6.40
2018,12,16,12,32,8.10
2018,12,16,12,33,4.80
2018,12,16,12,34,16.10
2018,12,16,12,35,4.80
2018,12,16,12,36,4.80
2018,12,16,12,37,4.80
2018,12,16,12,38,9.60
2018,12,16,12,39,8.10
2018,12,16,12,40,6.40
2018,12,16,12,41,4.80
2018,12,16,12,42,6.40
2018,12,16,12,43,6.40
2018,12,16,12,44,6.40
2018,12,16,12,45,6.40
2018,12,16,12,46,6.40
2018,12,16,12,47,6.40
2018,12,16,12,48,6.40
2018,12,16,12,49,4.80
2018,12,16,12,50,6.40
2018,12,16,12,51,4.80
2018,12,16,12,52,3.20
2018,12,16,12,53,6.40
2018,12,16,12,54,6.40
2018,12,16,12,55,6.40
2018,12,16,12,56,9.60
2018,12,16,12,57,6.40
2018,12,16,12,58,6.40
2018,12,16,12,59,3.20
2018,12,16,13,00,4.80
2018,12,16,13,01,4.80
2018,12,16,13,02,4.80
2018,12,16,13,03,6.40
2018,12,16,13,04,9.60
2018,12,16,13,05,4.80
2018,12,16,13,06,4.80
2018,12,16,13,07,3.20
2018,12,16,13,08,4.80
2018,12,16,13,09,4.80
2018,12,16,13,10,6.40
2018,12,16,13,11,4.80
2018,12,16,13,12,4.80
2018,12,16,13,13,4.80
2018,12,16,13,14,3.20
2018,12,16,13,15,6.40
2018,12,16,13,16,9.60
2018,12,16,13,17,6.40
2018,12,16,13,18,6.40
2018,12,16,13,19,6.40
2018,12,16,13,20,9.60
2018,12,16,13,21,9.60
2018,12,16,13,22,11.30
2018,12,16,13,23,11.30
2018,12,16,13,24,11.30
2018,12,16,13,25,3.20
2018,12,16,13,26,6.40
2018,12,16,13,27,4.80
2018,12,16,13,28,3.20
2018,12,16,13,29,3.20
2018,12,16,13,30,3.20
2018,12,16,13,31,3.20
2018,12,16,13,32,3.20
2018,12,16,13,33,4.80
2018,12,16,13,34,6.40
2018,12,16,13,35,4.80
2018,12,16,13,36,4.80
2018,12,16,13,37,4.80
2018,12,16,13,38,4.80
2018,12,16,13,39,4.80
2018,12,16,13,40,1.60
2018,12,16,13,41,3.20
2018,12,16,13,42,3.20
2018,12,16,13,43,4.80
2018,12,16,13,44,6.40
2018,12,16,13,45,4.80
2018,12,16,13,46,3.20
2018,12,16,13,47,4.80
2018,12,16,13,48,1.60
2018,12,16,13,49,3.20
2018,12,16,13,50,4.80
2018,12,16,13,51,4.80
2018,12,16,13,52,4.80
2018,12,16,13,53,3.20
2018,12,16,13,54,1.60
2018,12,16,13,55,4.80
2018,12,16,13,56,3.20
2018,12,16,13,57,4.80
2018,12,16,13,58,4.80
2018,12,16,13,59,3.20
2018,12,16,14,00,6.40
2018,12,16,14,01,4.80
2018,12,16,14,02,3.20
2018,12,16,14,03,3.20
2018,12,16,14,04,3.20
2018,12,16,14,05,3.20
2018,12,16,14,06,4.80
2018,12,16,14,07,3.20
2018,12,16,14,08,4.80
2018,12,16,14,09,6.40
2018,12,16,14,10,4.80
2018,12,16,14,11,9.60
2018,12,16,14,12,4.80
2018,12,16,14,13,6.40
2018,12,16,14,14,4.80
2018,12,16,14,15,4.80
2018,12,16,14,16,11.30
2018,12,16,14,17,9.60
2018,12,16,14,18,4.80
2018,12,16,14,19,3.20
2018,12,16,14,20,4.80
2018,12,16,14,21,3.20
2018,12,16,14,22,4.80
2018,12,16,14,23,4.80
2018,12,16,14,24,1.60
2018,12,16,14,25,6.40
2018,12,16,14,26,4.80
2018,12,16,14,27,4.80
2018,12,16,14,28,4.80
2018,12,16,14,29,3.20
2018,12,16,14,30,6.40
2018,12,16,14,31,4.80
2018,12,16,14,32,4.80
2018,12,16,14,33,4.80
2018,12,16,14,34,4.80
2018,12,16,14,35,4.80
2018,12,16,14,36,4.80
2018,12,16,14,37,3.20
2018,12,16,14,38,4.80
2018,12,16,14,39,3.20
2018,12,16,14,40,3.20
2018,12,16,14,41,4.80
2018,12,16,14,42,6.40
2018,12,16,14,43,6.40
2018,12,16,14,44,3.20
2018,12,16,14,45,4.80
2018,12,16,14,46,4.80
2018,12,16,14,47,3.20
2018,12,16,14,48,1.60
2018,12,16,14,49,1.60
2018,12,16,14,50,1.60
2018,12,16,14,51,3.20
2018,12,16,14,52,3.20
2018,12,16,14,53,4.80
2018,12,16,14,54,1.60
2018,12,16,14,56,3.20
2018,12,16,14,57,4.80
2018,12,16,14,58,6.40
2018,12,16,14,59,4.80
2018,12,16,15,00,3.20
2018,12,16,15,01,3.20
2018,12,16,15,02,3.20
2018,12,16,15,03,3.20
2018,12,16,15,04,4.80
2018,12,16,15,05,4.80
2018,12,16,15,06,3.20
2018,12,16,15,07,1.60
2018,12,16,15,08,3.20
2018,12,16,15,09,4.80
2018,12,16,15,10,4.80
2018,12,16,15,11,4.80
2018,12,16,15,12,4.80
2018,12,16,15,13,4.80
2018,12,16,15,14,4.80
2018,12,16,15,15,4.80
2018,12,16,15,16,3.20
2018,12,16,15,17,4.80
2018,12,16,15,18,4.80
2018,12,16,15,19,6.40
2018,12,16,15,20,9.60
2018,12,16,15,21,9.60
2018,12,16,15,22,6.40
2018,12,16,15,23,4.80
2018,12,16,15,24,6.40
2018,12,16,15,25,6.40
2018,12,16,15,26,6.40
2018,12,16,15,27,6.40
2018,12,16,15,28,9.60
2018,12,16,15,29,9.60
2018,12,16,15,30,6.40
2018,12,16,15,31,9.60
2018,12,16,15,32,6.40
2018,12,16,15,33,6.40
2018,12,16,15,34,14.50
2018,12,16,15,35,12.90
2018,12,16,15,36,8.10
2018,12,16,15,37,3.20
2018,12,16,15,38,4.80
2018,12,16,15,39,6.40
2018,12,16,15,40,9.60
2018,12,16,15,41,11.30
2018,12,16,15,42,16.10
2018,12,16,15,43,14.50
2018,12,16,15,44,12.90
2018,12,16,15,45,14.50
2018,12,16,15,46,12.90
2018,12,16,15,47,14.50
2018,12,16,15,48,14.50
2018,12,16,15,49,12.90
2018,12,16,15,50,12.90
2018,12,16,15,51,11.30
2018,12,16,15,52,12.90
2018,12,16,15,53,11.30
2018,12,16,15,54,9.60
2018,12,16,15,55,11.30
2018,12,16,15,56,12.90
2018,12,16,15,57,11.30
2018,12,16,15,58,12.90
2018,12,16,15,59,11.30
2018,12,16,16,00,8.10
2018,12,16,16,01,9.60
2018,12,16,16,02,6.40
2018,12,16,16,03,6.40
2018,12,16,16,04,6.40
2018,12,16,16,05,4.80
2018,12,16,16,06,4.80
2018,12,16,16,07,3.20
2018,12,16,16,08,3.20
2018,12,16,16,09,3.20
2018,12,16,16,10,1.60
2018,12,16,16,11,1.60
2018,12,16,16,12,1.60
2018,12,16,16,14,1.60
2018,12,16,16,15,1.60
2018,12,16,16,16,1.60
2018,12,16,16,17,1.60
2018,12,16,16,18,1.60
2018,12,16,16,22,1.60
2018,12,16,16,23,1.60
2018,12,16,16,26,1.60
2018,12,16,16,27,1.60
2018,12,16,16,28,1.60
2018,12,16,16,33,1.60
2018,12,16,16,34,1.60
2018,12,16,16,35,1.60
2018,12,16,16,36,1.60
2018,12,16,16,37,1.60
2018,12,16,16,42,1.60
2018,12,16,16,44,1.60
2018,12,16,16,45,1.60
2018,12,16,16,46,1.60
2018,12,16,16,47,1.60
2018,12,16,16,48,3.20
2018,12,16,16,49,1.60
2018,12,16,16,50,1.60
2018,12,16,16,51,1.60
2018,12,16,16,52,3.20
2018,12,16,16,53,3.20
2018,12,16,16,54,3.20
2018,12,16,16,55,3.20
2018,12,16,16,56,3.20
2018,12,16,16,57,4.80
2018,12,16,16,58,3.20
2018,12,16,16,59,3.20
2018,12,16,17,00,4.80
2018,12,16,17,01,3.20
2018,12,16,17,02,6.40
2018,12,16,17,03,9.60
2018,12,16,17,04,6.40
2018,12,16,17,05,4.80
2018,12,16,17,06,4.80
2018,12,16,17,07,4.80
2018,12,16,17,08,6.40
2018,12,16,17,09,3.20
2018,12,16,17,10,4.80
2018,12,16,17,11,4.80
2018,12,16,17,12,3.20
2018,12,16,17,13,1.60
2018,12,16,17,14,3.20
2018,12,16,17,15,3.20
2018,12,16,17,16,3.20
2018,12,16,17,17,3.20
2018,12,16,17,18,3.20
2018,12,16,17,19,3.20
2018,12,16,17,20,1.60
2018,12,16,17,21,6.40
2018,12,16,17,22,4.80
2018,12,16,17,23,3.20
2018,12,16,17,24,1.60
2018,12,16,17,25,1.60
2018,12,16,17,27,1.60
2018,12,16,17,28,1.60
2018,12,16,17,29,1.60
2018,12,16,17,30,3.20
2018,12,16,17,31,1.60
2018,12,16,17,32,1.60
2018,12,16,17,33,1.60
2018,12,16,17,34,3.20
2018,12,16,17,35,4.80
2018,12,16,17,36,3.20
2018,12,16,17,37,1.60
2018,12,16,17,38,1.60
2018,12,16,17,39,3.20
2018,12,16,17,40,3.20
2018,12,16,17,41,1.60
2018,12,16,17,42,1.60
2018,12,16,17,43,1.60
2018,12,16,17,44,3.20
2018,12,16,17,45,1.60
2018,12,16,17,46,1.60
2018,12,16,17,47,1.60
2018,12,16,17,49,1.60
2018,12,16,17,50,1.60
2018,12,16,17,51,1.60
2018,12,16,17,52,1.60
2018,12,16,17,53,1.60
2018,12,16,17,54,1.60
2018,12,16,17,55,1.60
2018,12,16,17,56,1.60
2018,12,16,18,03,1.60
2018,12,16,18,04,1.60
2018,12,16,18,05,1.60
2018,12,16,18,06,1.60